Regional Weather Roundup
Issued by NWS

Home | Current Version | Previous Version | Graphics & Text | Print | Product List | Glossary On
Versions: 1 2 3 4 5 6 7 8 9 10 11 12 13 14 15 16 17 18 19 20 21 22 23 24 25 26 27 28 29 30 31 32 33 34 35 36 37 38 39 40 41 42 43 44 45 46 47 48 49 50
000
ASUS43 KBIS 051910
RWRND

NORTH DAKOTA REGIONAL WEATHER ROUNDUP
NATIONAL WEATHER SERVICE BISMARCK ND
200 PM CDT THU MAY 05 2016

NOTE: "FAIR" INDICATES FEW OR NO CLOUDS BELOW 12,000 FEET WITH NO
SIGNIFICANT WEATHER AND/OR OBSTRUCTIONS TO VISIBILITY.


NDZ001>003-009>011-017-052000-
NORTHWEST NORTH DAKOTA

CITY           SKY/WX    TMP DP  RH WIND       PRES   REMARKS
WILLISTON      SUNNY     88  40  18 SW12      29.80F
MINOT          SUNNY     93  38  14 S16G23    29.78F
MINOT AFB      SUNNY     88  41  19 VRB3G22   29.77F
$$

NDZ018>021-031>035-040>046-052000-
SOUTHWEST NORTH DAKOTA

CITY           SKY/WX    TMP DP  RH WIND       PRES   REMARKS
BISMARCK       SUNNY     85  47  26 S9        29.85F
DICKINSON      SUNNY     83  35  18 VRB3      29.85F
GARRISON         N/A     87  43  21 SW12      29.82F
HETTINGER ARPT SUNNY     81  39  22 VRB5      29.90F
$$

NDZ004>008-012>016-024-026-027-054-052000-
NORTHEAST NORTH DAKOTA

CITY           SKY/WX    TMP DP  RH WIND       PRES   REMARKS
GRAND FORKS    MOSUNNY   92  39  15 W17G33    29.77F
GRND FRKS AFB  SUNNY     90  37  15 W17G26    29.78F
DEVILS LAKE    SUNNY     85  43  22 SW13      29.82F
$$

NDZ022-023-025-028>030-036>039-047>053-052000-
SOUTHEAST NORTH DAKOTA

CITY           SKY/WX    TMP DP  RH WIND       PRES   REMARKS
FARGO          MOSUNNY   90  39  16 SW15G25   29.82F
JAMESTOWN      SUNNY     86  37  17 SW18G25   29.85F
$$





USA.gov is the U.S. government's official web portal to all federal, state and local government web resources and services.